SAOCOM 1B

Last updated on Thu Oct 30 2025 00:02:16 GMT+0000 (Coordinated Universal Time)

1 46265U 20059A 25302.48377128 .00000728 00000+0 98005-4 0 9993 2 46265 97.8870 126.6486 0001366 88.1043 272.0326 14.82162210279318
UTC large
Height (km)
Speed (km/s)
/
Latitude / Longitude
Inclination (degrees)
Orbital Period (minutes)
Azimuth
Elevation
Range (km)
Doppler Factor

Next 0 passes for location: London (51.5072 / 0.1276)

Sorry there are no passes over London.